Location: Zagreb
(45.8000°N, 16.0000°E)
Time: 23:53:01
(UTC+02:00)

ISS - Visible Passes

Search period start: 31 May 2016 00:00
Search period end: 10 June 2016 00:00
Orbit: 402 x 404 km, 51.6° (Epoch: 31 May)

Date Brightness Start Highest point End Pass type
(mag) Time Alt. Az. Time Alt. Az. Time Alt. Az.
31 May -1.2 00:15:39 10° WNW 00:18:33 28° N 00:21:27 10° ENE visible
31 May -2.9 01:52:09 10° WNW 01:55:24 62° NNE 01:56:22 39° E visible
31 May -2.4 21:45:29 10° W 21:48:41 52° NNW 21:51:55 10° ENE visible
31 May -1.2 23:22:42 10° WNW 23:25:36 28° N 23:28:29 10° ENE visible
01 Jun -2.2 00:59:24 10° NW 01:02:33 43° NNE 01:03:26 34° ENE visible
01 Jun -0.6 02:35:54 10° WNW 02:35:59 10° WNW 02:35:59 10° WNW visible
01 Jun -1.3 22:29:41 10° WNW 22:32:38 30° N 22:35:35 10° NE visible
02 Jun -1.6 00:06:36 10° NW 00:09:38 33° NNE 00:11:38 17° ENE visible
02 Jun -1.3 01:43:01 10° WNW 01:44:11 20° WNW 01:44:11 20° WNW visible
02 Jun -1.6 21:36:37 10° W 21:39:40 35° NNW 21:42:44 10° NE visible
02 Jun -1.3 23:13:44 10° WNW 23:16:40 29° N 23:19:35 10° ENE visible
03 Jun -2.5 00:50:12 10° WNW 00:52:41 47° NW 00:52:41 47° NW visible
03 Jun -1.2 22:20:47 10° WNW 22:23:40 28° N 22:26:33 10° ENE visible
03 Jun -2.4 23:57:24 10° NW 00:00:35 47° NNE 00:01:18 39° ENE visible
04 Jun -1.3 21:27:44 10° WNW 21:30:39 29° N 21:33:35 10° ENE visible
04 Jun -1.8 23:04:34 10° NW 23:07:39 36° NNE 23:10:00 15° ENE visible
05 Jun -1.6 00:41:00 10° WNW 00:42:36 26° WNW 00:42:36 26° WNW visible
05 Jun -1.5 22:11:42 10° NW 22:14:39 30° N 22:17:35 10° ENE visible
05 Jun -3.4 23:48:07 10° WNW 23:51:21 81° N 23:51:21 81° N visible
06 Jun -1.3 21:18:43 10° WNW 21:21:37 28° N 21:24:30 10° ENE visible
06 Jun -2.7 22:55:17 10° WNW 22:58:31 53° NNE 23:00:09 25° E visible
07 Jun -0.9 00:31:57 10° W 00:32:44 15° W 00:32:44 15° W visible
07 Jun -2.0 22:02:26 10° NW 22:05:32 38° NNE 22:08:37 10° E visible
07 Jun -2.7 23:38:53 10° WNW 23:41:34 45° WSW 23:41:34 45° WSW visible
08 Jun -3.4 22:45:56 10° WNW 22:49:13 87° SSW 22:50:25 36° ESE visible
09 Jun -2.9 21:53:03 10° WNW 21:56:19 59° NNE 21:59:18 12° ESE visible
09 Jun -1.7 23:29:49 10° W 23:31:54 23° WSW 23:31:54 23° WSW visible
